Regional Weather Roundup
Issued by NWS

Home | Current Version | Previous Version | Graphics & Text | Print | Product List | Glossary On
Versions: 1 2 3 4 5 6 7 8 9 10 11 12 13 14 15 16 17 18 19 20 21 22 23 24 25 26 27 28 29 30 31 32 33 34 35 36 37 38 39 40 41 42 43 44 45 46 47 48 49 50
000
ASUS43 KLMK 310402
RWRKY
KENTUCKY REGIONAL WEATHER ROUNDUP
NATIONAL WEATHER SERVICE LOUISVILLE KY
1200 AM EDT SUN JUL 31 2016

NOTE "FAIR" INDICATES FEW OR NO CLOUDS BELOW 12,000 FEET
WITH NO SIGNIFICANT WEATHER AND/OR OBSTRUCTIONS TO VISIBILITY.

KYZ001>023-026-027-061>063-070>075-310500-
WESTERN AND SOUTH CENTRAL KENTUCKY

CITY           SKY/WX    TMP DP  RH WIND       PRES   REMARKS
PADUCAH        CLOUDY    75  71  87 CALM      29.99R
HENDERSON      CLEAR     73  68  83 CALM      29.98R
OWENSBORO      PTCLDY    75  72  91 CALM      29.99R
HOPKINSVILLE   PTCLDY    78  73  86 CALM      30.00R
BOWLING GREEN  CLEAR     75  71  87 CALM      30.00R
GLASGOW        NOT AVBL
$$

KYZ024-025-028>034-038-045-046-053-310500-
NORTH CENTRAL KENTUCKY

CITY           SKY/WX    TMP DP  RH WIND       PRES   REMARKS
LOUISVILLE/SDF PTCLDY    76  71  85 CALM      29.98F
LOUISVILLE/LOU CLEAR     75  70  84 CALM      29.99S
FORT KNOX      CLEAR     71  70  98 SE2       29.98F
$$

KYZ035>037-039>044-047>052-055>060-089>105-310500-
NORTHEAST KENTUCKY

CITY           SKY/WX    TMP DP  RH WIND       PRES   REMARKS
LEXINGTON      CLEAR     73  69  87 CALM      30.01F
COVINGTON      PTCLDY    75  72  90 SW3       29.99S
FRANKFORT      CLEAR     71  68  90 CALM      29.99F
$$

KYZ054-064>069-076>088-106>120-310500-
SOUTHEAST KENTUCKY

CITY           SKY/WX    TMP DP  RH WIND       PRES   REMARKS
JACKSON        CLEAR     72  68  87 S3        30.03F
LONDON         CLEAR     72  69  90 CALM      30.03F
SOMERSET       PTCLDY    72  72 100 CALM      30.04R
MIDDLESBORO    CLEAR     71  71 100 CALM      30.06R
MONTICELLO     CLEAR    N/A N/A N/A NE9       30.04S HAZE
$$




USA.gov is the U.S. government's official web portal to all federal, state and local government web resources and services.